Regional Weather Roundup
Issued by NWS Wakefield, VA

Home | Current Version | Previous Version | Text Only | Print | Product List | Glossary On
Versions: 1 2 3 4 5 6 7 8 9 10 11 12 13 14 15 16 17 18 19 20 21 22 23 24 25 26 27 28 29 30 31 32 33 34 35 36 37 38 39 40 41 42 43 44 45 46 47 48 49 50
000
ASUS41 KAKQ 040415
RWRAKQ

REGIONAL WEATHER ROUNDUP
NATIONAL WEATHER SERVICE WAKEFIELD VA
1200 AM EDT MON MAY 04 2015

Note: "fair" indicates few or no clouds below 12,000 feet with no
significant weather and/or obstructions to visibility. * = Denotes
station may not report precipitation (e.g., rain,snow,etc.),
thunder or fog.

VAZ042-051-052>054-056-040500-
NORTHERN VIRGINIA

CITY           SKY/WX    TMP DP  RH WIND       PRES   REMARKS
WASH NATIONAL  CLEAR     65  48  54 S7        30.16R
DULLES         PTCLDY    59  46  62 S3        30.15S
FORT BELVOIR   CLEAR     53  49  86 CALM      30.16R
QUANTICO       CLEAR     59  51  75 NW3       30.17R
FREDERICKSBRG* CLEAR     60  53  79 SE3       30.16S
STAFFORD*      CLEAR     53  46  75 CALM      30.21R
WARRENTON      CLEAR     50  49  96 CALM      30.16S
CULPEPER*      NOT AVBL
MANASSAS*      CLEAR     52  48  87 CALM      30.16S
LEESBURG*      CLEAR     59  50  72 S3        30.16S
WINCHESTER     CLEAR     63  37  39 W5        30.16R
FRONT ROYAL*   FAIR      59  45  58 SW6       30.16R
LURAY*         FAIR      54  48  82 CALM      30.18R
$$

VAZ048-049-060>072-079>083-040500-
CENTRAL AND SOUTH CENTRAL VIRGINIA

CITY           SKY/WX    TMP DP  RH WIND       PRES   REMARKS
RICHMOND       PTCLDY    60  47  61 CALM      30.18R
CHESTERFIELD*  FAIR      55  39  54 CALM      30.20R
PETERSBURG*    CLEAR     51  50  95 CALM      30.20R
HANOVER        CLEAR     54  48  80 CALM      30.20R
TAPPAHANNOCK*  CLEAR     57  43  60 S3        30.18S
QUINTON*       FAIR      55  49  83 CALM      30.18S
CHARLOTTSVILLE CLEAR     59  43  55 CALM      30.18R
GORDONSVILLE*  FAIR      53  48  83 CALM      30.17R
ORANGE*        CLEAR     54  46  76 CALM      30.19R
LOUISA*        CLEAR     55  48  76 CALM      30.17R
BUMPASS*       FAIR      55  46  70 SW7       30.18R
FARMVILLE*     CLEAR     55  49  80 CALM      30.18S
CREWE*         FAIR      52  49  88 CALM      30.19R
FORT PICKETT*  FAIR      55  49  80 CALM      30.20R
CHASE CITY*    FAIR      56  52  85 CALM      30.20S
CLARKSVILLE*   FAIR      52  50  93 CALM      30.20R
SOUTH HILL*    CLEAR     52  50  93 CALM      30.27R
LAWRENCEVILLE* FAIR      59  49  68 CALM      30.20R
EMPORIA*       CLEAR     46  46 100 CALM      30.22R
$$

VAZ088>098-040500-
SOUTHEAST VIRGINIA

CITY           SKY/WX    TMP DP  RH WIND       PRES   REMARKS
NORFOLK        MOCLDY    61  48  62 S5        30.20R
VIRGINIA BEACH MOCLDY    65  50  58 S9        30.20R
NORFOLK NAVAL  MOCLDY    70  48  45 S5        30.21R
WEST POINT*    CLEAR     56  50  79 CALM      30.20R
SALUDA*        FAIR      61  49  65 SW7       30.18R
NEWPORT NEWS   PTCLDY    59  48  67 CALM      30.19R
LANGLEY AFB    PTCLDY    61  50  67 SW5       30.18R
FORT EUSTIS    PTCLDY    60  53  77 S3        30.17R
WILLIAMSBURG*  PTCLDY    59  55  88 CALM      30.20R
HR EXEC AP*    FAIR      52  48  87 CALM      30.22R
FRANKLIN*      PTCLDY    53  50  89 CALM      30.21R
WAKEFIELD      PTCLDY    55  50  83 CALM      30.20R
$$

VAZ020-022-025-037-045-040500-
WEST CENTRAL AND SOUTHWEST VIRGINIA

CITY           SKY/WX    TMP DP  RH WIND       PRES   REMARKS
STAUNTON*      CLEAR     53  46  77 CALM      30.22R
WAYNESBORO*    FAIR      56  40  56 SW3       30.20S
HOT SPRINGS VA CLEAR     57  38  47 S8        30.26S
LYNCHBURG      CLEAR     54  45  71 CALM      30.21S
DANVILLE       PTCLDY    54  48  80 CALM      30.21R
SOUTH BOSTON*  FAIR      53  49  86 CALM      30.20S
MARTINSVILLE   PTCLDY    52  52 100 CALM      30.24R
ROANOKE        CLEAR     63  45  51 CALM      30.23R
BLACKSBURG     CLEAR     52  44  74 CALM      30.26R
DUBLIN*        CLEAR     56  48  76 CALM      30.24S
MARION*        CLEAR     56  46  70 CALM      30.25S
HILLSVILLE*    PTCLDY    61  46  58 S6        30.25R
RICHLANDS*     CLOUDY    61  32  32 CALM      30.23R
WISE*          CLEAR     57  34  41 CALM      30.23S
ABINGDON*      PTCLDY    56  45  65 CALM      30.22R
$$

MDZ021>025-VAZ099-100-040500-
SOUTHERN MARYLAND AND THE DELMARVA PENINSULA

CITY           SKY/WX    TMP DP  RH WIND       PRES   REMARKS
PATUXENT RIVER CLEAR     63  46  54 SW10      30.16R
BAY BRIDGE APT   N/A    N/A N/A N/A S5        30.15S
LEONARDTOWN    CLEAR     61  41  48 CALM      30.18S
DOVER          CLEAR     59  52  77 S5        30.13R
GEORGETOWN     CLEAR     56  50  80 SE6       30.18R
EASTON         CLEAR     63  47  57 S3        30.20R
CAMBRIDGE      CLEAR     57  46  67 SE3       30.16S
SALISBURY      CLEAR     53  49  86 CALM      30.17R
OCEAN CITY     CLEAR     52  51  97 CALM      30.18R FOG
WALLOPS ISLAND CLEAR     58  46  64 SW8       30.18R
ACCOMACK*      CLEAR     63  52  67 S6        30.18S
$$

NCZ012>017-030>032-040500-
NORTH CENTRAL AND EASTERN NORTH CAROLINA

CITY           SKY/WX    TMP DP  RH WIND       PRES   REMARKS
ROANOKE RAPIDS FAIR      54  50  87 S5        30.21R
RALEIGH        PTCLDY    63  48  58 S9        30.23R
ELIZABETH CITY PTCLDY    64  51  62 SW9       30.22R
AHOSKIE*       CLEAR     60  47  62 S5        30.22R
EDENTON*       PTCLDY    65  49  56 SW12      30.23R
CURRITUCK*     CLEAR     64  49  59 S3        30.23R
KILL DEVIL HLS CLEAR     63  50  63 SW5       30.22R
MANTEO         MOCLDY    61  53  75 S5        30.24R
CAPE HATTERAS  PTCLDY    60  54  80 W7        30.25R
TARBORO*       FAIR      63  47  56 S3        30.24R
GOLDSBORO      CLEAR     61  46  57 CALM      30.22R
WASHINGTON     CLEAR     62  47  57 S5        30.25R
GREENVILLE     CLEAR     59  48  67 S6        30.24S
NEW BERN       CLEAR     58  51  78 CALM      30.26R
WILMINGTON     CLEAR     58  53  84 CALM      30.25R
$$

VAZ048-040500-
ELSEWHERE

CITY           SKY/WX    TMP DP  RH WIND       PRES   REMARKS
HARRISBURG PA  PTCLDY    62  45  53 CALM      30.13R
BALTIMORE      PTCLDY    65  43  44 SW7       30.14S
ANNAPOLIS      CLEAR     60  50  69 CALM      30.15R
ANDREWS AFB    CLEAR     62  46  55 S7        30.15S
PHILADELPHIA   CLEAR     62  46  55 W3        30.16R
HENDERSON NC   CLEAR     58  47  67 S3        30.22R
GREENSBORO     MOCLDY    63  48  58 S3        30.21R
ROCKY MOUNT    CLEAR     59  47  64 S5        30.23R
$$

VAZ100-040500-
MARINE

STATION/POSITION TIME  TEMP    WIND        PRES    WAVE   SWELL
                       AIR SEA DIR/SP/G            HT/PER HT/PER
                 (UTC) (F)     (DEG/KT/KT) (MB)    (FT/S) (FT/S)
BRANDYWINE LGT   0300   57 53  160/ 12/ 12 1021.5R
CAPE MAY NJ      0300   54 61  100/  4/  5 1021.1R
LEWES DE         0300   63 58  190/  4/  5 1021.2R
15NM E FENWICK I 0350   54 52              1021.6R   4/ 9
OCEAN-CITY-INLET 0300   57 53  190/  4/  5 1021.4R
WACHAPREAGUE VA  0300   63 63  220/  6/  8 1021.9R
THOMAS POINT MD  0400   63 60  200/  6/  6 1021.7R
GOOSES REEF MD   0400   64 58                N/A     1
COVE POINT MD    0300   68     220/ 10/ 11 1021.7R
SOLOMONS ISLAND  0306      61                N/A
BISHOPS HEAD MD  0300   66 66  190/ 13/ 15 1020.9R
PINEY POINT MD   0300          200/  4/  5   N/A
CAMBRIDGE MD     0300   64 61  180/  2/  4 1020.9R
LEWISETTA VA     0300   67 64              1021.0R
RAPPAHANNOCK LGT 0300          170/ 10/ 10 1022.3R
YORK RVR RNG VA  0300   66     210/  9/  9 1021.2R
YORKTOWN VA      0306   67 60  210/  7/  8 1021.5R
JAMESTOWN VA     0400   60 64   60/  2/  2 1021.4R
DOMINION TERM VA 0300   65     210/  6/  6 1022.1R
KIPTOPEKE VA     0300      63  170/  8/  8   N/A
CHES BAY BRIDGE  0306   66 57  160/  8/  8 1021.8R
CAPE HENRY VA    0300   67     180/  8/ 10 1020.9R
CHESAPEAKE LGHT  0300   65     200/ 20/ 20 1022.6R
WILLOUBY STN VA  0300   70     200/ 10/ 12 1022.7R
S CRANEY ISL VA  0306          200/  4/  5 1022.2R
CAPE HENRY BUOY  0328      54                N/A     3/11   2/11
1ST LANDING BUOY 0400      60                N/A     1/ 6
CAPE CHARLES BUO 0326      57                N/A     3/10   3/10
OFFSHORE WE BUOY 0311      53                N/A     3/11   3/11
64NM E OF VA BCH 0350   62 62  230/ 12/ 16 1022.6R   5/10   5/10
DUCK PIER NC     0300   66 56  200/ 12/ 14 1022.0R
44056 DUCK FRF   0311      56                N/A     4/12   2/12
OREGON INLET NC  0300   64 65  210/ 10/ 11 1023.5R
HATTERAS NC      0306   64 63  240/  5/  7 1023.6R
DIAMOND SHLS NC  0350   63 60  270/  6/  8 1024.2R   4/12   3/12
CAPE LOOKOUT NC  0400   66     190/  4/  5 1024.3R
$$


USA.gov is the U.S. government's official web portal to all federal, state and local government web resources and services.